This is the latest recevied weather packets stored in our database for station/object K2CCS. If no packets are shown the sender has not sent any weather packets the latest 10 day(s).
| Time | Temp. | Humidity | Pressure | Rain* | Wind** | Luminosity | Snow |
|---|---|---|---|---|---|---|---|
| 1777472898 | 15.56° C | 56% | 1017.9 hPa | 0 mm | - | 420 W/m² | - |
| 1777472595 | 15.56° C | 56% | 1017.9 hPa | 0 mm | - | 244 W/m² | - |
| 1777472292 | 15.56° C | 56% | 1018.2 hPa | 0 mm | - | 458 W/m² | - |
| 1777471989 | 15.56° C | 56% | 1018 hPa | 0 mm | - | 445 W/m² | - |
| 1777471684 | 15.56° C | 55% | 1018 hPa | 0 mm | - | 270 W/m² | - |
| 1777471077 | 15° C | 57% | 1018.3 hPa | 0 mm | - | 419 W/m² | - |
| 1777469863 | 14.44° C | 59% | 1018.8 hPa | 0 mm | - | 212 W/m² | - |
| 1777469559 | 14.44° C | 59% | 1019 hPa | 0 mm | - | 188 W/m² | - |
| 1777469254 | 14.44° C | 58% | 1018.8 hPa | 0 mm | - | 226 W/m² | - |
| 1777468948 | 13.89° C | 59% | 1018.9 hPa | 0 mm | - | 188 W/m² | - |
| 1777468645 | 13.89° C | 60% | 1018.7 hPa | 0 mm | - | 116 W/m² | - |
| 1777468342 | 13.89° C | 61% | 1019 hPa | 0 mm | - | 192 W/m² | - |
| 1777468038 | 13.89° C | 62% | 1018.8 hPa | 0 mm | - | 140 W/m² | - |
| 1777467430 | 12.78° C | 63% | 1019.1 hPa | 0 mm | - | 111 W/m² | - |
| 1777466823 | 12.78° C | 64% | 1019.5 hPa | 0 mm | - | 78 W/m² | - |
| 1777466216 | 12.22° C | 65% | 1020 hPa | 0 mm | - | 105 W/m² | - |
| 1777465912 | 12.22° C | 64% | 1020.2 hPa | 0 mm | - | 104 W/m² | - |
| 1777465609 | 12.22° C | 64% | 1019.9 hPa | 0 mm | - | 104 W/m² | - |
| 1777464999 | 12.22° C | 64% | 1020 hPa | 0 mm | - | 95 W/m² | - |
| 1777464694 | 12.22° C | 64% | 1020 hPa | 0 mm | - | 91 W/m² | - |
| 1777462570 | 11.67° C | 63% | 1020.2 hPa | 0 mm | - | 52 W/m² | - |
| 1777461658 | 11.11° C | 63% | 1020.1 hPa | 0 mm | - | 39 W/m² | - |
| 1777461353 | 11.11° C | 63% | 1020 hPa | 0 mm | - | 35 W/m² | - |
| 1777460745 | 11.11° C | 63% | 1020.2 hPa | 0 mm | - | 22 W/m² | - |
| 1777458927 | 10.56° C | 62% | 1020 hPa | 0 mm | - | 8 W/m² | - |
* Rain latest hour (hover to see other rain measurements)
** Current wind speed in m/s (hover to see current wind gust speed)